,,Stat6,,Stat2,,Stat8,,Stat9,,Stat10,,Wind1,,Wind1,
time,status,PA1M_AVG,status,PR1M_SUM,status,RH1M_AVG,status,SR1M_AVG,status,TA1M_AVG,status,W1dAve1m,status,W1sAve1m,
2009-07-07, 00:00:00,VALID,917.591,VALID,0,VALID,100,VALID,-0.101885,VALID,19.3963,VALID,137,VALID,1.22805,
2009-07-07, 00:01:00,VALID,917.581,VALID,0,VALID,100,VALID,-0.101885,VALID,19.4023,VALID,147,VALID,1.39901,
2009-07-07, 00:02:00,VALID,917.577,VALID,0,VALID,100,VALID,-0.0679233,VALID,19.4088,VALID,149,VALID,1.13562,
2009-07-07, 00:03:00,VALID,917.558,VALID,0,VALID,100,VALID,-0.0849042,VALID,19.422,VALID,152,VALID,1.3892,
2009-07-07, 00:04:00,VALID,917.545,VALID,0,VALID,100,VALID,-0.101885,VALID,19.4188,VALID,147,VALID,1.17014,
2009-07-07, 00:05:00,VALID,917.525,VALID,0,VALID,100,VALID,-0.0679233,VALID,19.4055,VALID,160,VALID,1.40892,
2009-07-07, 00:06:00,VALID,917.533,VALID,0,VALID,100,VALID,-0.101885,VALID,19.422,VALID,148,VALID,1.31195,
2009-07-07, 00:07:00,VALID,917.527,VALID,0,VALID,100,VALID,-0.101885,VALID,19.4188,VALID,137,VALID,1.27288,
2009-07-07, 00:08:00,VALID,917.537,VALID,0,VALID,100,VALID,-0.0849042,VALID,19.4123,VALID,140,VALID,1.31623,
2009-07-07, 00:09:00,VALID,917.547,VALID,0,VALID,100,VALID,-0.118866,VALID,19.4088,VALID,140,VALID,1.4782,
2009-07-07, 00:10:00,VALID,917.557,VALID,0,VALID,100,VALID,-0.101885,VALID,19.419,VALID,155,VALID,1.43376,
2009-07-07, 00:11:00,VALID,917.551,VALID,0,VALID,100,VALID,-0.101885,VALID,19.4123,VALID,147,VALID,1.50746,
2009-07-07, 00:12:00,VALID,917.571,VALID,0,VALID,100,VALID,0,VALID,19.417,VALID,145,VALID,1.53416,
2009-07-07, 00:13:00,VALID,917.579,VALID,0,VALID,100,VALID,0.0339617,VALID,19.4105,VALID,142,VALID,1.59738,
2009-07-07, 00:14:00,VALID,917.585,VALID,0,VALID,100,VALID,0,VALID,19.4105,VALID,137,VALID,1.76618,
2009-07-07, 00:15:00,VALID,917.607,VALID,0,VALID,100,VALID,0.0169808,VALID,19.4073,VALID,143,VALID,1.5476,
2009-07-07, 00:16:00,VALID,917.601,VALID,0,VALID,100,VALID,0.0339617,VALID,19.3908,VALID,140,VALID,1.26448,
2009-07-07, 00:17:00,VALID,917.61,VALID,0,VALID,100,VALID,0,VALID,19.3816,VALID,152,VALID,1.4811,
2009-07-07, 00:18:00,VALID,917.6,VALID,0,VALID,100,VALID,0.0169808,VALID,19.3684,VALID,154,VALID,1.51172,
2009-07-07, 00:19:00,VALID,917.602,VALID,0,VALID,100,VALID,0.0169808,VALID,19.3951,VALID,157,VALID,1.27402,
2009-07-07, 00:20:00,VALID,917.595,VALID,0,VALID,100,VALID,0,VALID,19.3913,VALID,160,VALID,1.13572,
2009-07-07, 00:21:00,VALID,917.597,VALID,0,VALID,100,VALID,-0.0169808,VALID,19.3983,VALID,158,VALID,1.09052,
2009-07-07, 00:22:00,VALID,917.609,VALID,0,VALID,100,VALID,0,VALID,19.3981,VALID,153,VALID,1.42206,
2009-07-07, 00:23:00,VALID,917.612,VALID,0,VALID,100,VALID,-0.0169808,VALID,19.3814,VALID,159,VALID,1.40412,
2009-07-07, 00:24:00,VALID,917.604,VALID,0,VALID,100,VALID,0,VALID,19.3754,VALID,153,VALID,1.48171,
2009-07-07, 00:25:00,VALID,917.6,VALID,0,VALID,100,VALID,0,VALID,19.3624,VALID,157,VALID,1.85175,
2009-07-07, 00:26:00,VALID,917.61,VALID,0,VALID,100,VALID,0,VALID,19.3696,VALID,160,VALID,1.55625,
2009-07-07, 00:27:00,VALID,917.602,VALID,0,VALID,100,VALID,0,VALID,19.3492,VALID,151,VALID,1.35176,
2009-07-07, 00:28:00,VALID,917.581,VALID,0,VALID,100,VALID,-0.0339617,VALID,19.3329,VALID,142,VALID,1.26767,
2009-07-07, 00:29:00,VALID,917.575,VALID,0,VALID,100,VALID,-0.0509425,VALID,19.317,VALID,139,VALID,1.31343,
2009-07-07, 00:30:00,VALID,917.548,VALID,0,VALID,100,VALID,0,VALID,19.3042,VALID,149,VALID,1.49409,
2009-07-07, 00:31:00,VALID,917.527,VALID,0,VALID,100,VALID,-0.0169808,VALID,19.3114,VALID,146,VALID,1.11395,
2009-07-07, 00:32:00,VALID,917.507,VALID,0,VALID,100,VALID,0.0169808,VALID,19.2813,VALID,147,VALID,1.11754,
2009-07-07, 00:33:00,VALID,917.503,VALID,0,VALID,100,VALID,0,VALID,19.2488,VALID,145,VALID,1.0202,
2009-07-07, 00:34:00,VALID,917.486,VALID,0,VALID,100,VALID,-0.0169808,VALID,19.2363,VALID,143,VALID,1.54815,
2009-07-07, 00:35:00,VALID,917.478,VALID,0,VALID,100,VALID,0,VALID,19.2134,VALID,133,VALID,1.30952,
2009-07-07, 00:36:00,VALID,917.457,VALID,0,VALID,100,VALID,0,VALID,19.1672,VALID,134,VALID,1.36719,
2009-07-07, 00:37:00,VALID,917.45,VALID,0,VALID,100,VALID,0,VALID,19.1517,VALID,130,VALID,1.14444,
2009-07-07, 00:38:00,VALID,917.421,VALID,0,VALID,100,VALID,0,VALID,19.1392,VALID,138,VALID,1.1254,
2009-07-07, 00:39:00,VALID,917.404,VALID,0,VALID,100,VALID,-0.0169808,VALID,19.0931,VALID,131,VALID,1.05748,
2009-07-07, 00:40:00,VALID,917.393,VALID,0,VALID,100,VALID,0,VALID,19.0542,VALID,122,VALID,0.938262,
2009-07-07, 00:41:00,VALID,917.376,VALID,0,VALID,100,VALID,0.0169808,VALID,19.0607,VALID,148,VALID,1.58103,
2009-07-07, 00:42:00,VALID,917.36,VALID,0,VALID,100,VALID,-0.0169808,VALID,19.0699,VALID,153,VALID,1.50391,
2009-07-07, 00:43:00,VALID,917.331,VALID,0,VALID,100,VALID,-0.0339617,VALID,19.0899,VALID,136,VALID,1.37845,
2009-07-07, 00:44:00,VALID,917.295,VALID,0,VALID,100,VALID,0,VALID,19.0894,VALID,130,VALID,1.07698,
2009-07-07, 00:45:00,VALID,917.293,VALID,0,VALID,100,VALID,-0.0169808,VALID,19.0931,VALID,133,VALID,0.827431,
2009-07-07, 00:46:00,VALID,917.267,VALID,0,VALID,100,VALID,0.0169808,VALID,19.0672,VALID,131,VALID,0.803886,
2009-07-07, 00:47:00,VALID,917.258,VALID,0,VALID,100,VALID,0,VALID,19.0569,VALID,125,VALID,0.766197,
2009-07-07, 00:48:00,VALID,917.248,VALID,0,VALID,100,VALID,0,VALID,19.0472,VALID,125,VALID,0.898801,
2009-07-07, 00:49:00,VALID,917.236,VALID,0,VALID,100,VALID,0,VALID,19.0243,VALID,131,VALID,0.773838,
2009-07-07, 00:50:00,VALID,917.235,VALID,0,VALID,100,VALID,0.0339617,VALID,19.0145,VALID,142,VALID,0.971236,
2009-07-07, 00:51:00,VALID,917.243,VALID,0,VALID,100,VALID,0.0339617,VALID,19.0083,VALID,150,VALID,0.78054,
2009-07-07, 00:52:00,VALID,917.25,VALID,0,VALID,100,VALID,0.0169808,VALID,18.9925,VALID,140,VALID,1.32222,
2009-07-07, 00:53:00,VALID,917.263,VALID,0,VALID,100,VALID,0,VALID,18.9791,VALID,151,VALID,1.07376,
2009-07-07, 00:54:00,VALID,917.283,VALID,0,VALID,100,VALID,0,VALID,18.9733,VALID,143,VALID,0.926054,
2009-07-07, 00:55:00,VALID,917.289,VALID,0,VALID,100,VALID,0,VALID,18.9629,VALID,131,VALID,1.30574,
2009-07-07, 00:56:00,VALID,917.3,VALID,0,VALID,100,VALID,0.0169808,VALID,18.9731,VALID,119,VALID,0.734896,
2009-07-07, 00:57:00,VALID,917.313,VALID,0,VALID,100,VALID,0,VALID,18.9471,VALID,131,VALID,1.14773,
2009-07-07, 00:58:00,VALID,917.325,VALID,0,VALID,100,VALID,0,VALID,18.9339,VALID,137,VALID,1.15737,
2009-07-07, 00:59:00,VALID,917.337,VALID,0,VALID,100,VALID,0.0169808,VALID,18.9205,VALID,148,VALID,0.695499,
2009-07-07, 01:00:00,VALID,917.331,VALID,0,VALID,100,VALID,0.0169808,VALID,18.9207,VALID,122,VALID,0.946181,
2009-07-07, 01:01:00,VALID,917.323,VALID,0,VALID,100,VALID,0.0169808,VALID,18.9177,VALID,120,VALID,1.05923,
2009-07-07, 01:02:00,VALID,917.326,VALID,0,VALID,100,VALID,0.0169808,VALID,18.9242,VALID,127,VALID,0.851563,
2009-07-07, 01:03:00,VALID,917.329,VALID,0,VALID,100,VALID,0.0169808,VALID,18.9012,VALID,132,VALID,0.539249,
2009-07-07, 01:04:00,VALID,917.323,VALID,0,VALID,100,VALID,0.0339617,VALID,18.8845,VALID,132,VALID,0.74628,
2009-07-07, 01:05:00,VALID,917.308,VALID,0,VALID,100,VALID,0,VALID,18.8556,VALID,132,VALID,0.536644,
2009-07-07, 01:06:00,VALID,917.302,VALID,0,VALID,100,VALID,0.0339617,VALID,18.8591,VALID,170,VALID,1.0799,
2009-07-07, 01:07:00,VALID,917.287,VALID,0,VALID,100,VALID,0.0679233,VALID,18.8359,VALID,156,VALID,0.499645,
2009-07-07, 01:08:00,VALID,917.283,VALID,0,VALID,100,VALID,0.0169808,VALID,18.7907,VALID,160,VALID,0.604469,
2009-07-07, 01:09:00,VALID,917.274,VALID,0,VALID,100,VALID,0.0169808,VALID,18.7585,VALID,153,VALID,0.771802,
2009-07-07, 01:10:00,VALID,917.269,VALID,0,VALID,100,VALID,0.0509425,VALID,18.7356,VALID,143,VALID,0.775931,
2009-07-07, 01:11:00,VALID,917.26,VALID,0,VALID,100,VALID,0,VALID,18.6997,VALID,155,VALID,0.709896,
2009-07-07, 01:12:00,VALID,917.252,VALID,0,VALID,100,VALID,-0.0849042,VALID,18.6756,VALID,160,VALID,0.919969,
2009-07-07, 01:13:00,VALID,917.256,VALID,0,VALID,100,VALID,-0.101885,VALID,18.6527,VALID,167,VALID,0.759722,
2009-07-07, 01:14:00,VALID,917.247,VALID,0,VALID,100,VALID,-0.118866,VALID,18.6369,VALID,142,VALID,0.977108,
2009-07-07, 01:15:00,VALID,917.233,VALID,0,VALID,100,VALID,-0.101885,VALID,18.5945,VALID,156,VALID,0.950457,
2009-07-07, 01:16:00,VALID,917.227,VALID,0,VALID,100,VALID,-0.0849042,VALID,18.585,VALID,146,VALID,0.663889,
2009-07-07, 01:17:00,VALID,917.208,VALID,0,VALID,100,VALID,-0.101885,VALID,18.5491,VALID,138,VALID,0.850084,
2009-07-07, 01:18:00,VALID,917.197,VALID,0,VALID,100,VALID,-0.118866,VALID,18.5134,VALID,145,VALID,0.959449,
2009-07-07, 01:19:00,VALID,917.168,VALID,0,VALID,100,VALID,-0.101885,VALID,18.5069,VALID,138,VALID,1.08262,
2009-07-07, 01:20:00,VALID,917.16,VALID,0,VALID,100,VALID,-0.101885,VALID,18.5164,VALID,142,VALID,1.18694,
2009-07-07, 01:21:00,VALID,917.145,VALID,0,VALID,100,VALID,-0.101885,VALID,18.5329,VALID,137,VALID,1.72752,
2009-07-07, 01:22:00,VALID,917.137,VALID,0,VALID,100,VALID,-0.0849042,VALID,18.5558,VALID,136,VALID,1.61146,
2009-07-07, 01:23:00,VALID,917.131,VALID,0,VALID,100,VALID,-0.118866,VALID,18.5361,VALID,140,VALID,1.16521,
2009-07-07, 01:24:00,VALID,917.12,VALID,0,VALID,100,VALID,-0.118866,VALID,18.5394,VALID,145,VALID,1.24272,
2009-07-07, 01:25:00,VALID,917.115,VALID,0,VALID,100,VALID,-0.101885,VALID,18.5431,VALID,143,VALID,1.04815,
2009-07-07, 01:26:00,VALID,917.112,VALID,0,VALID,100,VALID,-0.135847,VALID,18.5296,VALID,135,VALID,0.958274,
2009-07-07, 01:27:00,VALID,917.099,VALID,0,VALID,100,VALID,0,VALID,18.525,VALID,139,VALID,1.24943,
2009-07-07, 01:28:00,VALID,917.109,VALID,0,VALID,100,VALID,0.0339617,VALID,18.5118,VALID,142,VALID,0.880682,
2009-07-07, 01:29:00,VALID,917.095,VALID,0,VALID,100,VALID,0,VALID,18.4928,VALID,147,VALID,1.11577,
2009-07-07, 01:30:00,VALID,917.087,VALID,0,VALID,100,VALID,0.0679233,VALID,18.4925,VALID,147,VALID,0.969866,
2009-07-07, 01:31:00,VALID,917.084,VALID,0,VALID,100,VALID,0,VALID,18.4958,VALID,151,VALID,1.32317,
2009-07-07, 01:32:00,VALID,917.076,VALID,0,VALID,100,VALID,0,VALID,18.4925,VALID,156,VALID,1.32539,
2009-07-07, 01:33:00,VALID,917.065,VALID,0,VALID,100,VALID,0,VALID,18.4893,VALID,149,VALID,1.38063,
2009-07-07, 01:34:00,VALID,917.045,VALID,0,VALID,100,VALID,0.0169808,VALID,18.4761,VALID,152,VALID,1.0476,
2009-07-07, 01:35:00,VALID,917.034,VALID,0,VALID,100,VALID,0.0339617,VALID,18.4828,VALID,160,VALID,1.49883,
2009-07-07, 01:36:00,VALID,917.023,VALID,0,VALID,100,VALID,0,VALID,18.4865,VALID,148,VALID,1.06195,
2009-07-07, 01:37:00,VALID,917.01,VALID,0,VALID,100,VALID,-0.0169808,VALID,18.4506,VALID,159,VALID,0.993862,
2009-07-07, 01:38:00,VALID,917.008,VALID,0,VALID,100,VALID,0.0169808,VALID,18.4406,VALID,157,VALID,1.08941,
2009-07-07, 01:39:00,VALID,916.996,VALID,0,VALID,100,VALID,0.0339617,VALID,18.4274,VALID,154,VALID,1.18259,
2009-07-07, 01:40:00,VALID,916.981,VALID,0,VALID,100,VALID,0,VALID,18.4179,VALID,165,VALID,0.78125,
2009-07-07, 01:41:00,VALID,916.989,VALID,0,VALID,100,VALID,0,VALID,18.3952,VALID,161,VALID,0.927507,
2009-07-07, 01:42:00,VALID,916.991,VALID,0,VALID,100,VALID,0,VALID,18.3952,VALID,159,VALID,1.00692,
2009-07-07, 01:43:00,VALID,917.006,VALID,0,VALID,100,VALID,0,VALID,18.3823,VALID,168,VALID,0.528299,
2009-07-07, 01:44:00,VALID,916.99,VALID,0,VALID,100,VALID,0,VALID,18.3596,VALID,175,VALID,0.469295,
2009-07-07, 01:45:00,VALID,916.991,VALID,0,VALID,100,VALID,0.0169808,VALID,18.3626,VALID,162,VALID,1.07483,
2009-07-07, 01:46:00,VALID,916.994,VALID,0,VALID,100,VALID,0.0169808,VALID,18.3566,VALID,162,VALID,0.440589,
2009-07-07, 01:47:00,VALID,916.989,VALID,0,VALID,100,VALID,0,VALID,18.3535,VALID,154,VALID,1.38717,
2009-07-07, 01:48:00,VALID,916.978,VALID,0,VALID,100,VALID,0,VALID,18.3561,VALID,163,VALID,0.919876,
2009-07-07, 01:49:00,VALID,916.959,VALID,0,VALID,100,VALID,0.0169808,VALID,18.3661,VALID,158,VALID,1.26326,
2009-07-07, 01:50:00,VALID,916.958,VALID,0,VALID,100,VALID,-0.0169808,VALID,18.3693,VALID,175,VALID,1.09747,
2009-07-07, 01:51:00,VALID,916.945,VALID,0,VALID,100,VALID,0.0169808,VALID,18.3563,VALID,164,VALID,1.21566,
2009-07-07, 01:52:00,VALID,916.944,VALID,0,VALID,100,VALID,0,VALID,18.3628,VALID,163,VALID,1.23547,
2009-07-07, 01:53:00,VALID,916.937,VALID,0,VALID,100,VALID,0.0169808,VALID,18.3758,VALID,159,VALID,1.35338,
2009-07-07, 01:54:00,VALID,916.922,VALID,0,VALID,100,VALID,0.0169808,VALID,18.3855,VALID,160,VALID,1.0169,
2009-07-07, 01:55:00,VALID,916.91,VALID,0,VALID,100,VALID,0.0339617,VALID,18.3725,VALID,158,VALID,0.712028,
2009-07-07, 01:56:00,VALID,916.91,VALID,0,VALID,100,VALID,-0.0169808,VALID,18.376,VALID,169,VALID,1.00074,
2009-07-07, 01:57:00,VALID,916.893,VALID,0,VALID,100,VALID,-0.0509425,VALID,18.3644,VALID,152,VALID,0.81141,
2009-07-07, 01:58:00,VALID,916.894,VALID,0,VALID,100,VALID,-0.0679233,VALID,18.3445,VALID,119,VALID,0.917696,
2009-07-07, 01:59:00,VALID,916.876,VALID,0,VALID,100,VALID,-0.0679233,VALID,18.338,VALID,114,VALID,0.922066,
2009-07-07, 02:00:00,VALID,916.872,VALID,0,VALID,100,VALID,-0.101885,VALID,18.3155,VALID,83,VALID,0.806734,
2009-07-07, 02:01:00,VALID,916.859,VALID,0,VALID,100,VALID,-0.0679233,VALID,18.3026,VALID,119,VALID,1.06764,
2009-07-07, 02:02:00,VALID,916.85,VALID,0,VALID,100,VALID,-0.101885,VALID,18.3093,VALID,94,VALID,1.0441,
2009-07-07, 02:03:00,VALID,916.852,VALID,0,VALID,100,VALID,-0.101885,VALID,18.2764,VALID,81,VALID,0.770198,
2009-07-07, 02:04:00,VALID,916.837,VALID,0,VALID,100,VALID,-0.101885,VALID,18.2539,VALID,129,VALID,0.869673,
2009-07-07, 02:05:00,VALID,916.825,VALID,0,VALID,100,VALID,-0.101885,VALID,18.2604,VALID,129,VALID,1.35423,
2009-07-07, 02:06:00,VALID,916.833,VALID,0,VALID,100,VALID,-0.0849042,VALID,18.2539,VALID,121,VALID,1.10684,
2009-07-07, 02:07:00,VALID,916.833,VALID,0,VALID,100,VALID,-0.101885,VALID,18.2342,VALID,115,VALID,1.1748,
2009-07-07, 02:08:00,VALID,916.827,VALID,0,VALID,100,VALID,-0.101885,VALID,18.2345,VALID,119,VALID,1.04844,
2009-07-07, 02:09:00,VALID,916.801,VALID,0,VALID,100,VALID,-0.0849042,VALID,18.2375,VALID,124,VALID,1.53281,
2009-07-07, 02:10:00,VALID,916.783,VALID,0,VALID,100,VALID,-0.101885,VALID,18.2375,VALID,127,VALID,1.51842,
2009-07-07, 02:11:00,VALID,916.764,VALID,0,VALID,100,VALID,-0.0849042,VALID,18.2314,VALID,128,VALID,1.53889,
2009-07-07, 02:12:00,VALID,916.748,VALID,0,VALID,100,VALID,-0.0679233,VALID,18.2247,VALID,127,VALID,1.42205,
2009-07-07, 02:13:00,VALID,916.724,VALID,0,VALID,100,VALID,-0.101885,VALID,18.2182,VALID,129,VALID,1.24867,
2009-07-07, 02:14:00,VALID,916.726,VALID,0,VALID,100,VALID,-0.0679233,VALID,18.1823,VALID,139,VALID,1.18559,
2009-07-07, 02:15:00,VALID,916.703,VALID,0,VALID,100,VALID,-0.0509425,VALID,18.1752,VALID,146,VALID,1.48952,
2009-07-07, 02:16:00,VALID,916.697,VALID,0,VALID,100,VALID,-0.0679233,VALID,18.1826,VALID,145,VALID,1.17318,
2009-07-07, 02:17:00,VALID,916.689,VALID,0,VALID,100,VALID,-0.0849042,VALID,18.1631,VALID,121,VALID,1.31901,
2009-07-07, 02:18:00,VALID,916.681,VALID,0,VALID,100,VALID,-0.101885,VALID,18.1402,VALID,133,VALID,1.36662,
2009-07-07, 02:19:00,VALID,916.684,VALID,0,VALID,100,VALID,-0.118866,VALID,18.1077,VALID,126,VALID,1.16933,
2009-07-07, 02:20:00,VALID,916.68,VALID,0,VALID,100,VALID,-0.0849042,VALID,18.0816,VALID,126,VALID,1.36047,
2009-07-07, 02:21:00,VALID,916.669,VALID,0,VALID,100,VALID,-0.0509425,VALID,18.0755,VALID,133,VALID,1.35434,
2009-07-07, 02:22:00,VALID,916.669,VALID,0,VALID,100,VALID,-0.0849042,VALID,18.0591,VALID,143,VALID,1.27095,
2009-07-07, 02:23:00,VALID,916.662,VALID,0,VALID,100,VALID,-0.0849042,VALID,18.0589,VALID,137,VALID,1.13301,
2009-07-07, 02:24:00,VALID,916.644,VALID,0,VALID,100,VALID,-0.0509425,VALID,18.039,VALID,139,VALID,1.67383,
2009-07-07, 02:25:00,VALID,916.638,VALID,0,VALID,100,VALID,-0.0849042,VALID,18.0626,VALID,136,VALID,1.51543,
2009-07-07, 02:26:00,VALID,916.62,VALID,0,VALID,100,VALID,-0.0849042,VALID,18.0559,VALID,141,VALID,1.68519,
2009-07-07, 02:27:00,VALID,916.6,VALID,0,VALID,100,VALID,0.0169808,VALID,18.0378,VALID,145,VALID,1.93883,
2009-07-07, 02:28:00,VALID,916.576,VALID,0,VALID,100,VALID,0.0509425,VALID,18.0408,VALID,141,VALID,1.63175,
2009-07-07, 02:29:00,VALID,916.557,VALID,0,VALID,100,VALID,0.0169808,VALID,18.045,VALID,127,VALID,1.4185,
2009-07-07, 02:30:00,VALID,916.539,VALID,0,VALID,100,VALID,0.0509425,VALID,18.0383,VALID,143,VALID,1.29818,
2009-07-07, 02:31:00,VALID,916.519,VALID,0,VALID,100,VALID,0.0679233,VALID,18.0443,VALID,134,VALID,1.85387,
2009-07-07, 02:32:00,VALID,916.506,VALID,0,VALID,100,VALID,0.0339617,VALID,18.061,VALID,136,VALID,1.81159,
2009-07-07, 02:33:00,VALID,916.5,VALID,0,VALID,100,VALID,0.0509425,VALID,18.0677,VALID,145,VALID,1.65122,
2009-07-07, 02:34:00,VALID,916.493,VALID,0,VALID,100,VALID,0.0339617,VALID,18.0605,VALID,138,VALID,1.94438,
2009-07-07, 02:35:00,VALID,916.491,VALID,0,VALID,100,VALID,0.0169808,VALID,18.0677,VALID,132,VALID,1.52325,
2009-07-07, 02:36:00,VALID,916.472,VALID,0,VALID,100,VALID,0.0169808,VALID,18.0547,VALID,124,VALID,1.36923,
2009-07-07, 02:37:00,VALID,916.452,VALID,0,VALID,100,VALID,0.0339617,VALID,18.0385,VALID,117,VALID,1.32617,
2009-07-07, 02:38:00,VALID,916.429,VALID,0,VALID,100,VALID,0.0169808,VALID,18.0221,VALID,129,VALID,1.38777,
2009-07-07, 02:39:00,VALID,916.41,VALID,0,VALID,100,VALID,-0.0169808,VALID,18.0255,VALID,124,VALID,1.42835,
2009-07-07, 02:40:00,VALID,916.388,VALID,0,VALID,100,VALID,0.0169808,VALID,18.0255,VALID,130,VALID,1.36648,
2009-07-07, 02:41:00,VALID,916.376,VALID,0,VALID,100,VALID,0.0339617,VALID,18.032,VALID,140,VALID,1.4832,
2009-07-07, 02:42:00,VALID,916.352,VALID,0,VALID,100,VALID,-0.101885,VALID,18.0329,VALID,129,VALID,1.40263,
2009-07-07, 02:43:00,VALID,916.348,VALID,0,VALID,100,VALID,-0.0679233,VALID,18.0331,VALID,128,VALID,1.47266,
2009-07-07, 02:44:00,VALID,916.329,VALID,0,VALID,100,VALID,-0.0509425,VALID,18.0107,VALID,128,VALID,1.05451,
2009-07-07, 02:45:00,VALID,916.307,VALID,0,VALID,100,VALID,-0.0679233,VALID,17.9813,VALID,128,VALID,0.961914,
2009-07-07, 02:46:00,VALID,916.308,VALID,0,VALID,100,VALID,-0.0679233,VALID,17.9845,VALID,149,VALID,1.08594,
2009-07-07, 02:47:00,VALID,916.304,VALID,0,VALID,100,VALID,-0.0679233,VALID,17.9815,VALID,147,VALID,1.22879,
2009-07-07, 02:48:00,VALID,916.302,VALID,0,VALID,100,VALID,-0.0509425,VALID,17.9815,VALID,159,VALID,1.2136,
2009-07-07, 02:49:00,VALID,916.297,VALID,0,VALID,100,VALID,-0.0679233,VALID,17.9782,VALID,152,VALID,1.07086,
2009-07-07, 02:50:00,VALID,916.294,VALID,0,VALID,100,VALID,-0.101885,VALID,17.9549,VALID,145,VALID,1.11554,
2009-07-07, 02:51:00,VALID,916.283,VALID,0,VALID,100,VALID,-0.0849042,VALID,17.9553,VALID,157,VALID,1.30741,
2009-07-07, 02:52:00,VALID,916.282,VALID,0,VALID,100,VALID,-0.101885,VALID,17.9518,VALID,136,VALID,1.01172,
2009-07-07, 02:53:00,VALID,916.255,VALID,0,VALID,100,VALID,-0.0849042,VALID,17.9685,VALID,149,VALID,1.30717,
2009-07-07, 02:54:00,VALID,916.246,VALID,0,VALID,100,VALID,-0.0169808,VALID,17.9713,VALID,159,VALID,0.667683,
2009-07-07, 02:55:00,VALID,916.223,VALID,0,VALID,100,VALID,-0.101885,VALID,17.9555,VALID,152,VALID,0.961496,
2009-07-07, 02:56:00,VALID,916.211,VALID,0,VALID,100,VALID,-0.0849042,VALID,17.9523,VALID,143,VALID,1.11819,
2009-07-07, 02:57:00,VALID,916.207,VALID,0,VALID,100,VALID,-0.0509425,VALID,17.9322,VALID,134,VALID,1.35742,
2009-07-07, 02:58:00,VALID,916.194,VALID,0,VALID,100,VALID,-0.0849042,VALID,17.9326,VALID,141,VALID,1.52598,
2009-07-07, 02:59:00,VALID,916.178,VALID,0,VALID,100,VALID,-0.0169808,VALID,17.9322,VALID,134,VALID,1.47153,
2009-07-07, 03:00:00,VALID,916.173,VALID,0,VALID,100,VALID,-0.0679233,VALID,17.9324,VALID,136,VALID,1.42365,
2009-07-07, 03:01:00,VALID,916.179,VALID,0,VALID,100,VALID,-0.0679233,VALID,17.922,VALID,136,VALID,1.42225,
2009-07-07, 03:02:00,VALID,916.16,VALID,0,VALID,100,VALID,-0.0339617,VALID,17.9386,VALID,132,VALID,1.38021,
2009-07-07, 03:03:00,VALID,916.172,VALID,0,VALID,100,VALID,-0.0849042,VALID,17.9412,VALID,131,VALID,1.73419,
2009-07-07, 03:04:00,VALID,916.172,VALID,0,VALID,100,VALID,-0.0509425,VALID,17.9644,VALID,138,VALID,1.58316,
2009-07-07, 03:05:00,VALID,916.167,VALID,0,VALID,100,VALID,-0.101885,VALID,17.9808,VALID,137,VALID,1.47935,
2009-07-07, 03:06:00,VALID,916.172,VALID,0,VALID,100,VALID,-0.0679233,VALID,18.004,VALID,131,VALID,1.48642,
2009-07-07, 03:07:00,VALID,916.153,VALID,0,VALID,100,VALID,-0.0849042,VALID,18.0107,VALID,136,VALID,1.46147,
2009-07-07, 03:08:00,VALID,916.153,VALID,0,VALID,100,VALID,-0.0509425,VALID,17.9968,VALID,143,VALID,1.52798,
2009-07-07, 03:09:00,VALID,916.161,VALID,0,VALID,100,VALID,-0.0679233,VALID,18.0068,VALID,152,VALID,1.57527,
2009-07-07, 03:10:00,VALID,916.153,VALID,0,VALID,100,VALID,-0.0679233,VALID,17.9905,VALID,144,VALID,1.37391,
2009-07-07, 03:11:00,VALID,916.161,VALID,0,VALID,100,VALID,-0.0679233,VALID,17.9743,VALID,149,VALID,1.34251,
2009-07-07, 03:12:00,VALID,916.166,VALID,0,VALID,100,VALID,-0.101885,VALID,17.988,VALID,143,VALID,1.54129,
2009-07-07, 03:13:00,VALID,916.169,VALID,0,VALID,100,VALID,-0.101885,VALID,18.0074,VALID,139,VALID,1.37314,
2009-07-07, 03:14:00,VALID,916.18,VALID,0,VALID,100,VALID,-0.0339617,VALID,17.9972,VALID,143,VALID,1.40254,
2009-07-07, 03:15:00,VALID,916.183,VALID,0,VALID,100,VALID,-0.0849042,VALID,18.0172,VALID,142,VALID,1.39623,
2009-07-07, 03:16:00,VALID,916.18,VALID,0,VALID,100,VALID,-0.0509425,VALID,18.0102,VALID,143,VALID,1.44404,
2009-07-07, 03:17:00,VALID,916.171,VALID,0,VALID,100,VALID,-0.0509425,VALID,18.0033,VALID,147,VALID,1.46964,
2009-07-07, 03:18:00,VALID,916.188,VALID,0,VALID,100,VALID,-0.0339617,VALID,18.0037,VALID,133,VALID,1.44716,
2009-07-07, 03:19:00,VALID,916.186,VALID,0,VALID,100,VALID,-0.0509425,VALID,18.01,VALID,140,VALID,1.71389,
2009-07-07, 03:20:00,VALID,916.199,VALID,0,VALID,100,VALID,-0.0679233,VALID,18.0193,VALID,135,VALID,1.51971,
2009-07-07, 03:21:00,VALID,916.186,VALID,0,VALID,100,VALID,-0.0679233,VALID,18.0394,VALID,132,VALID,1.39528,
2009-07-07, 03:22:00,VALID,916.189,VALID,0,VALID,100,VALID,-0.0849042,VALID,18.0267,VALID,129,VALID,1.17297,
2009-07-07, 03:23:00,VALID,916.187,VALID,0,VALID,100,VALID,-0.0679233,VALID,18.0292,VALID,141,VALID,1.32635,
2009-07-07, 03:24:00,VALID,916.171,VALID,0,VALID,100,VALID,-0.0509425,VALID,18.0387,VALID,142,VALID,0.993118,
2009-07-07, 03:25:00,VALID,916.162,VALID,0,VALID,100,VALID,-0.0849042,VALID,18.0522,VALID,146,VALID,0.989329,
2009-07-07, 03:26:00,VALID,916.15,VALID,0,VALID,100,VALID,-0.0679233,VALID,18.0424,VALID,149,VALID,1.24037,
2009-07-07, 03:27:00,VALID,916.128,VALID,0,VALID,100,VALID,-0.0679233,VALID,18.0357,VALID,136,VALID,0.998001,
2009-07-07, 03:28:00,VALID,916.106,VALID,0,VALID,100,VALID,-0.0679233,VALID,18.0459,VALID,148,VALID,1.27437,
2009-07-07, 03:29:00,VALID,916.09,VALID,0,VALID,100,VALID,-0.101885,VALID,18.0366,VALID,129,VALID,0.897104,
2009-07-07, 03:30:00,VALID,916.071,VALID,0,VALID,100,VALID,-0.0509425,VALID,18.02,VALID,134,VALID,0.961682,
2009-07-07, 03:31:00,VALID,916.055,VALID,0,VALID,100,VALID,-0.0509425,VALID,18.023,VALID,127,VALID,1.18205,
2009-07-07, 03:32:00,VALID,916.045,VALID,0,VALID,100,VALID,-0.0509425,VALID,18.0364,VALID,127,VALID,1.42915,
2009-07-07, 03:33:00,VALID,916.033,VALID,0,VALID,100,VALID,-0.0679233,VALID,18.019,VALID,106,VALID,0.889535,
2009-07-07, 03:34:00,VALID,916.038,VALID,0,VALID,100,VALID,0,VALID,18.0095,VALID,79,VALID,0.777439,
2009-07-07, 03:35:00,VALID,916.041,VALID,0,VALID,100,VALID,-0.0679233,VALID,17.9806,VALID,81,VALID,0.869606,
2009-07-07, 03:36:00,VALID,916.042,VALID,0,VALID,100,VALID,-0.0679233,VALID,17.9711,VALID,95,VALID,0.749818,
2009-07-07, 03:37:00,VALID,916.046,VALID,0,VALID,100,VALID,-0.0849042,VALID,17.9776,VALID,100,VALID,0.674419,
2009-07-07, 03:38:00,VALID,916.054,VALID,0,VALID,100,VALID,-0.0169808,VALID,17.9836,VALID,115,VALID,0.804492,
2009-07-07, 03:39:00,VALID,916.053,VALID,0,VALID,100,VALID,-0.0169808,VALID,18.0165,VALID,126,VALID,0.834121,
2009-07-07, 03:40:00,VALID,916.05,VALID,0,VALID,100,VALID,-0.0509425,VALID,18.0195,VALID,139,VALID,1.30687,